CAPE
0 286 1932 2120 832 117 0 16 3 1 0 0 0 0 0 0 23 553 379 2 0 0 83 0 246 455 378 75 16 0 0 5 28 1 0 59 0 0 37 1 0 0 0 0 0 0 97 479 139
10 282 1160 1441 32 1 21 4 47 80 2 0 0 0 0 35 220 511 249 70 9 1 5 5 11 227 115 42 0 0 0 0 0 0 0 0 0 0 0 0 0 0 0 1 0 0 98 531 190
383 419 1075 390 3 0 15 79 75 156 0 0 0 0 0 35 240 237 185 91 27 0 4 39 20 13 1 0 0 0 0 0 0 0 0 0 0 0 1 1 2 1 2 0 0 0 156 459 287
20 843 733 275 6 112 40 60 241 57 0 0 0 0 0 0 49 83 58 75 56 0 105 37 49 6 1 0 0 0 0 0 0 0 0 0 2 8 11 4 4 14 0 0 0 0 145 465 338
0 590 293 11 5 25 279 298 521 146 4 0 0 0 0 15 69 89 74 65 2 0 42 46 17 1 1 0 0 0 1 1 4 30 37 45 161 100 4 0 1 0 0 0 0 18 60 210 208
1 175 180 21 131 280 249 415 626 339 34 8 0 0 13 240 166 143 79 12 0 0 0 0 0 1 1 1 0 0 0 61 101 34 53 98 19 0 0 0 0 0 0 0 0 0 0 5 11
0 159 106 124 290 470 449 415 629 473 262 79 0 0 273 172 188 155 85 0 0 0 0 0 0 0 7 14 37 53 223 315 330 249 25 0 0 0 0 0 0 0 0 0 0 0 0 0 0
0 67 161 261 259 427 631 489 531 501 461 117 0 0 212 224 181 157 109 0 0 0 0 0 0 0 0 121 357 412 370 402 354 37 0 0 0 0 0 0 0 0 0 0 0 0 0 0 0
0 0 6 171 350 414 575 543 504 299 471 168 2 38 123 391 212 255 191 2 0 0 0 0 0 9 213 242 489 483 527 236 0 0 0 0 0 0 0 0 0 0 0 0 0 0 0 0 0
0 0 0 61 214 381 490 566 497 190 353 250 73 201 444 467 353 449 338 41 0 0 36 3 8 26 175 326 354 425 397 69 4 0 0 0 0 0 0 0 0 0 0 0 0 0 0 0 0
0 0 0 0 28 240 503 578 503 295 341 429 236 189 782 623 588 661 475 206 0 27 64 3 14 69 204 100 302 304 189 1 0 0 0 0 0 0 0 0 0 0 0 0 0 0 0 0 0
0 0 0 0 0 159 304 468 497 384 464 467 184 190 974 824 815 790 616 337 33 66 69 60 54 137 249 170 571 188 4 0 0 0 0 0 0 0 0 0 0 0 0 0 0 0 0 0 0
0 0 0 0 0 1 134 316 356 358 396 99 36 289 1022 1028 881 855 669 360 111 106 130 225 246 419 443 453 428 136 1 0 0 0 0 0 0 0 0 0 0 0 0 0 0 0 0 0 0
0 0 0 0 0 0 0 8 190 298 338 108 64 93 877 1137 1001 924 776 553 277 155 283 456 501 691 597 511 459 129 0 0 0 0 0 0 0 0 0 0 0 0 0 0 0 0 0 0 0
0 0 0 0 0 0 0 0 0 95 167 128 175 299 570 1083 1149 969 871 755 464 289 378 674 952 914 815 642 35 1 3 0 0 0 0 0 0 0 0 0 0 0 0 0 0 0 0 0 0
0 0 0 0 0 0 0 0 0 23 197 56 182 306 451 996 1196 1119 945 891 760 432 514 873 1390 1140 973 474 0 0 0 0 0 0 0 0 0 0 0 0 0 0 0 0 0 0 0 0 0
0 0 0 0 0 0 0 0 0 0 191 74 203 247 525 978 1157 1174 1083 1072 933 776 720 890 1439 1114 319 0 0 0 0 0 0 0 0 0 0 0 0 0 0 0 0 0 0 0 0 0 0
0 0 0 0 0 0 0 0 0 0 179 124 278 203 224 504 990 544 169 1249 1050 1050 1120 984 1229 1147 9 0 0 0 0 0 0 0 0 0 0 0 0 0 0 0 0 0 0 0 0 0 0
0 0 0 0 0 0 0 3 4 0 185 199 344 337 218 276 674 1002 1219 1185 1216 1317 839 1341 1212 565 0 0 0 0 0 0 0 0 0 0 0 0 0 0 0 0 0 0 0 0 0 0 0
0 0 0 0 0 0 0 4 11 16 102 142 445 483 255 262 384 835 1106 1155 1269 318 31 1367 1193 401 8 0 0 0 0 0 0 0 0 0 0 0 0 0 0 0 0 0 0 0 0 0 0
9 0 0 0 0 0 62 11 24 18 137 94 194 367 303 233 344 449 612 748 482 207 759 1204 1062 293 25 0 0 0 0 0 0 0 0 0 0 0 0 0 0 0 0 0 0 0 0 0 0
27 32 13 4 0 23 125 42 33 47 148 149 214 156 96 91 123 424 444 395 383 656 1159 1426 1037 314 30 0 0 0 0 0 0 0 0 0 0 0 0 0 0 0 0 0 0 0 0 0 0
88 66 29 42 8 50 92 69 2 14 37 113 251 267 81 0 12 83 311 550 737 1028 1182 1316 931 208 42 0 0 0 0 0 0 0 0 0 0 0 0 0 0 0 0 0 0 0 0 0 0
187 117 110 99 62 11 0 6 3 12 0 30 124 387 247 105 0 1 0 27 368 927 1244 951 660 219 2 0 0 0 0 0 0 0 0 0 0 0 0 0 0 0 0 0 0 0 0 0 0
258 139 3 0 26 29 0 0 5 133 89 30 53 223 278 23 0 0 0 0 0 76 246 411 105 18 0 0 0 0 0 0 0 0 0 0 0 0 0 0 0 0 0 0 0 0 0 0 0
148 125 3 1 0 0 53 71 0 0 0 0 0 0 0 0 0 0 0 0 0 0 6 81 44 0 0 0 0 0 0 0 0 0 0 0 0 0 0 0 0 0 0 0 0 0 0 0 0
51 3 0 0 0 0 0 2 0 0 0 0 0 0 0 0 0 0 0 0 0 0 0 0 0 0 0 0 0 0 0 0 0 0 0 0 0 0 0 0 0 0 0 0 0 0 0 0 0
2 9 1 1 0 1 0 0 0 0 0 0 0 0 0 0 0 0 0 0 0 0 0 0 0 0 0 0 0 0 0 0 0 0 0 0 0 0 0 0 0 0 0 0 0 0 0 0 0
3 17 0 4 2 2 0 0 0 0 0 0 0 0 0 0 0 0 0 0 0 0 0 0 0 0 0 0 0 0 0 0 0 0 0 0 0 0 0 0 0 0 0 0 0 0 0 0 0
0 0 3 2 0 8 0 0 0 0 0 0 0 0 0 0 0 0 0 0 0 0 0 0 0 0 0 0 0 0 0 0 0 0 0 0 0 0 0 0 0 0 0 0 0 0 0 0 0
CIN
0 -176 -5 -1 -2 -37 0 -71 -13 -12 0 0 0 0 0 0 -15 -37 -162 -23 0 0 -207 0 -68 -7 -4 -60 -147 0 0 -8 -36 0 0 -59 0 0 -77 0 0 0 0 0 0 0 -91 -1 -49
-85 -102 -34 -3 -26 -3 -29 -2 -53 -26 -61 0 0 0 0 -104 -112 -143 -191 -287 -351 -96 -168 -277 -152 -35 -55 -85 0 0 0 0 0 0 0 0 0 0 0 0 0 0 0 0 0 0 -75 -1 -39
-127 -77 -8 -2 -4 0 -4 -28 -51 -16 0 0 0 0 0 -86 -134 -181 -228 -274 -280 0 -152 -223 -223 -184 0 0 0 0 0 0 0 0 0 0 0 0 0 0 0 0 0 0 0 0 -34 -1 -15
-124 -19 -10 -1 -94 -17 -16 -7 -16 -42 0 0 0 0 0 0 -228 -240 -320 -268 -228 0 -171 -232 -163 -95 0 0 0 0 0 0 0 0 0 0 0 0 -1 -1 0 0 0 0 0 0 -39 0 -1
0 -11 -1 -2 -26 -52 -5 -4 -9 -20 -58 0 0 0 0 -206 -251 -290 -282 -255 -193 0 -208 -192 -201 0 0 0 0 0 0 0 -1 -22 -2 -2 -85 -25 -2 0 -1 0 0 0 0 -4 -8 -14 -14
-32 -29 -2 -69 -9 -4 -5 -3 -5 -11 -36 -70 0 0 -56 -200 -235 -262 -264 -283 0 0 0 0 0 0 0 0 0 0 0 -26 -51 -10 -7 -2 -1 0 0 0 0 0 0 0 0 0 0 -2 -5
0 -17 -5 -2 -4 -3 -4 -3 -2 -8 -4 -12 0 0 -110 -192 -223 -242 -234 0 0 0 0 0 0 0 -153 -85 -54 -45 -23 -18 -17 -31 -20 0 0 0 0 0 0 0 0 0 0 0 0 0 0
0 -32 -3 -2 -2 -3 -3 -4 -9 -3 -2 -6 0 0 -87 -150 -215 -221 -215 -1 0 0 0 0 0 0 0 -37 -1 0 -4 -16 -19 -31 0 0 0 0 0 0 0 0 0 0 0 0 0 0 0
0 0 -80 -22 -1 -3 -2 -8 -16 -26 -7 -58 -26 -38 -72 -152 -197 -189 -178 -100 0 0 -1 -1 0 -20 -6 -6 -1 -1 0 -24 0 0 0 0 -1 0 0 0 0 0 0 0 0 0 0 0 0
0 0 0 -29 -3 -4 -4 -4 -3 -68 -34 -44 -60 -119 -57 -154 -155 -140 -150 -201 0 0 -103 -3 -2 -3 -10 -1 -5 -1 -1 -77 -1 0 0 0 0 0 0 0 0 0 0 0 0 0 0 0 0
0 0 0 0 -19 -4 -3 -1 -12 -42 -31 -36 -41 -84 -66 -130 -127 -105 -121 -141 0 -151 -85 -3 -99 -45 -5 -33 -4 -4 -37 0 0 0 0 0 0 0 0 0 0 0 0 0 0 0 0 0 0
0 0 0 0 0 -17 -10 -2 -2 -16 -9 -18 -39 -33 -62 -101 -98 -92 -83 -95 -149 -109 -92 -60 -48 -25 -2 -7 -19 -6 -2 0 0 0 0 0 0 0 0 0 0 0 0 0 0 0 0 0 0
0 0 0 0 0 -21 -35 -19 -3 -4 -22 -127 -164 -52 -54 -65 -70 -62 -62 -90 -91 -84 -79 -35 -16 -4 -3 -3 -13 -9 -1 0 0 0 0 0 0 0 0 0 0 0 0 0 0 0 0 0 0
0 0 0 0 0 0 0 -51 -11 -5 -9 -43 -175 -132 -60 -41 -51 -43 -42 -49 -61 -63 -43 -15 -2 -2 -7 -2 -2 -15 0 0 0 0 0 0 0 0 0 0 0 0 0 0 0 0 0 0 0
0 0 0 0 0 0 0 0 -15 -32 -2 -27 -89 -91 -58 -46 -20 -24 -26 -9 -27 -46 -20 -6 -22 -3 -2 -2 -65 -3 -48 0 0 0 0 0 0 0 0 0 0 0 0 0 0 0 0 0 0
0 0 0 0 0 0 0 0 0 -61 -4 -38 -89 -88 -58 -36 -28 -10 -17 -3 -2 -8 -8 -2 -12 -10 -2 -28 0 0 0 0 0 0 0 0 0 0 0 0 0 0 0 0 0 0 0 0 0
0 0 0 0 0 0 0 0 0 0 -4 -10 -13 -88 -62 -51 -21 -52 -30 -3 -2 -5 -3 -2 -12 -27 -83 0 0 0 0 0 0 0 0 0 0 0 0 0 0 0 0 0 0 0 0 0 0
0 0 0 0 0 0 0 0 0 0 -5 -15 -6 -30 -78 -94 -62 -140 -117 -7 -3 -3 -5 -22 -56 -8 -93 0 0 0 0 0 0 0 0 0 0 0 0 0 0 0 0 0 0 0 0 0 0
0 0 0 0 0 0 -1 -4 -5 0 -13 -13 -4 -28 -63 -77 -56 -17 -6 -3 -2 -21 -34 -28 -39 -91 0 0 0 0 0 0 0 0 0 0 0 0 0 0 0 0 0 0 0 0 0 0 0
0 0 0 0 0 0 -1 -3 -4 -5 -11 -16 -17 -18 -49 -63 -40 -46 -35 -38 -73 -180 -192 -25 -20 -120 -89 0 0 0 0 0 0 0 0 0 0 0 0 0 0 0 0 0 0 0 0 0 0
-4 0 0 0 0 0 -4 -4 -4 -6 -10 -17 -20 -24 -44 -45 -51 -69 -102 -96 -149 -150 -112 -32 -60 -148 -216 0 0 0 0 0 0 0 0 0 0 0 0 0 0 0 0 0 0 0 0 0 0
-3 -4 -3 -3 0 -5 -4 -8 -6 -3 -5 -3 -13 -24 -60 -87 -98 -35 -67 -90 -99 -101 -67 -37 -71 -112 -195 0 0 0 0 0 0 0 0 0 0 0 0 0 0 0 0 0 0 0 0 0 0
-3 -6 -3 -3 -7 -9 -9 -5 -7 -5 -6 -17 -2 -23 -61 -2 -240 -164 -70 -14 -51 -62 -48 -26 -51 -112 -173 0 0 0 0 0 0 0 0 0 0 0 0 0 0 0 0 0 0 0 0 0 0
-4 -4 -2 -6 -3 -5 0 -15 -2 -11 -2 -4 -3 -18 -58 -157 -72 -234 0 -111 -109 -64 -25 -46 -50 -105 -33 0 0 0 0 0 0 0 0 0 0 0 0 0 0 0 0 0 0 0 0 0 0
-2 -3 -5 -2 -3 -3 0 0 -6 -23 -6 -13 -8 -2 -25 -64 0 0 0 0 0 -244 -158 -95 -153 -138 0 0 0 0 0 0 0 0 0 0 0 0 0 0 0 0 0 0 0 0 0 0 0
-4 -5 -1 -2 -4 -1 -15 -32 0 0 0 0 0 0 0 0 0 0 0 0 0 0 -205 -167 -183 0 0 0 0 0 0 0 0 0 0 0 0 0 0 0 0 0 0 0 0 0 0 0 0
-6 -15 0 0 0 0 0 -31 -4 0 0 0 0 0 0 0 0 0 0 0 0 0 0 0 0 0 0 0 0 0 0 0 0 0 0 0 0 0 0 0 0 0 0 0 0 0 0 0 0
-40 -67 -3 0 0 -14 0 -6 0 0 0 0 0 0 0 0 0 0 0 0 0 0 0 0 0 0 0 0 0 0 0 0 0 0 0 0 0 0 0 0 0 0 0 0 0 0 0 0 0
-7 -4 -6 -2 -2 -2 -12 0 0 0 0 0 0 0 0 0 0 0 0 0 0 0 0 0 0 0 0 0 0 0 0 0 0 0 0 0 0 0 0 0 0 0 0 0 0 0 0 0 0
0 0 -5 -3 0 -4 -1 0 0 0 0 0 0 0 0 0 0 0 0 0 0 0 0 0 0 0 0 0 0 0 0 0 0 0 0 0 0 0 0 0 0 0 0 0 0 0 0 0 0
Wind_Speed
17 11 14 19 20 17 23 21 17 16 17 15 16 14 16 17 19 16 10 11 12 13 12 12 12 12 13 14 15 16 15 15 15 14 14 14 15 15 16 17 18 18 19 20 20 20 21 22 22
16 14 17 21 20 20 20 15 16 17 13 13 14 15 16 14 15 10 10 11 13 12 12 12 11 11 12 13 13 14 15 15 15 14 14 14 15 15 16 16 17 18 18 19 19 20 20 20 21
16 13 21 20 23 22 22 16 18 14 12 10 13 16 15 14 11 10 10 12 12 12 12 11 11 11 12 13 14 14 15 15 15 15 14 14 15 15 16 16 17 17 18 19 19 19 20 20 20
13 16 22 27 26 22 25 23 16 14 11 12 14 13 12 14 8 9 12 13 12 11 11 11 11 11 12 12 13 14 14 15 15 15 15 14 15 16 16 17 17 17 18 19 19 19 19 19 19
17 21 28 30 28 28 24 19 18 15 13 12 12 12 12 8 10 11 12 12 11 11 11 11 10 10 11 12 12 13 14 14 14 14 14 15 15 16 17 17 16 17 18 18 20 20 19 19 19
20 21 30 32 29 26 25 20 17 17 14 12 12 9 10 7 7 9 11 11 11 11 11 11 11 10 10 11 12 12 13 14 14 14 14 14 15 15 16 16 16 17 17 18 19 19 19 19 19
24 23 32 34 32 27 23 20 18 18 18 13 14 8 9 4 7 10 11 11 10 10 11 11 12 11 10 11 12 12 13 13 14 14 14 13 14 15 16 16 16 17 17 18 18 18 19 19 19
25 30 37 34 34 31 27 20 19 20 19 14 9 13 11 2 8 10 10 10 10 10 11 12 13 13 12 12 12 12 13 13 14 14 14 14 14 15 15 16 16 17 17 17 18 18 18 19 19
23 33 37 32 32 31 29 22 20 24 17 12 11 19 5 8 10 9 8 9 10 10 12 13 14 14 13 12 11 12 12 12 13 14 13 13 14 14 16 16 16 16 16 17 17 17 17 18 19
26 36 40 35 33 35 33 27 25 20 19 18 14 13 2 8 9 6 7 6 8 9 11 12 13 13 12 12 11 11 11 11 13 13 12 13 14 15 15 15 16 16 16 17 17 17 18 18 19
30 43 37 36 36 37 35 33 29 23 22 19 14 11 4 6 6 6 5 6 7 8 9 10 11 11 11 11 11 11 10 11 12 13 13 13 14 13 14 14 14 15 14 16 16 17 18 19 19
36 38 37 41 38 34 38 36 33 30 29 23 16 11 8 7 7 5 4 4 5 7 8 9 10 10 8 10 10 10 11 11 12 12 13 13 14 13 13 13 13 14 15 16 16 17 18 18 20
35 36 38 38 37 38 35 38 39 33 28 21 20 14 10 10 7 5 3 3 3 5 6 6 6 7 7 7 9 9 10 11 12 12 12 13 13 13 13 12 13 13 14 15 16 17 17 18 19
30 32 35 37 39 36 40 40 37 35 28 21 20 22 14 13 10 8 5 4 3 3 4 4 3 4 3 5 6 8 9 10 11 13 12 12 12 12 12 12 12 13 13 14 15 16 17 18 19
33 39 39 39 36 41 36 45 43 35 29 25 24 23 19 16 13 11 8 7 5 4 4 4 3 1 3 4 9 11 10 10 12 13 12 12 12 11 10 11 11 12 13 14 15 16 17 18 19
37 39 45 38 36 37 34 57 37 35 28 27 22 23 21 17 15 12 11 9 8 4 4 2 1 1 4 5 8 8 10 11 14 13 11 11 10 10 10 10 11 11 12 14 15 16 17 19 20
33 44 42 43 33 34 34 52 40 36 35 30 29 25 19 18 16 13 11 13 7 5 3 3 3 3 8 6 5 6 5 8 7 10 10 9 9 8 9 9 10 11 13 14 16 17 19 20 22
40 42 42 42 38 32 39 44 40 38 28 29 28 23 23 19 17 17 16 14 8 6 4 5 9 0 5 6 4 5 6 6 8 9 8 7 8 8 8 10 10 11 13 15 16 18 19 21 23
41 44 47 45 40 42 39 42 38 37 29 29 27 26 25 21 16 14 12 12 9 5 10 13 3 3 5 4 2 3 4 4 7 9 9 7 8 7 8 10 11 12 14 15 17 19 21 22 22
37 40 44 43 41 42 42 43 39 35 32 32 29 27 21 20 15 14 13 14 14 9 7 5 4 5 5 3 2 3 3 5 8 10 9 8 8 8 8 10 12 12 15 16 18 20 22 23 24
22 35 39 40 39 40 41 45 38 36 27 25 26 25 22 18 16 15 15 13 14 14 7 7 5 4 3 2 1 3 4 7 9 9 9 7 7 8 9 11 12 13 15 18 19 20 23 27 29
26 29 32 36 38 42 36 44 38 35 28 27 27 25 23 24 24 18 15 16 14 12 8 6 4 4 3 3 2 3 5 7 9 9 8 8 7 8 10 11 13 16 17 19 22 22 24 27 30
4 29 25 32 34 38 36 42 39 31 35 27 28 25 23 19 18 18 19 15 14 12 8 8 5 5 4 3 2 2 6 8 8 8 8 8 8 9 11 14 16 18 20 22 24 26 26 27 29
18 17 17 20 34 38 39 28 31 26 28 28 23 23 19 18 18 18 16 15 12 8 6 6 6 5 4 3 2 2 5 7 9 9 9 11 11 13 15 17 18 20 21 23 25 26 28 29 30
14 15 15 17 27 26 19 27 17 11 16 19 22 17 16 14 14 14 11 11 10 9 9 7 7 6 4 2 1 3 6 7 8 10 12 13 15 16 17 18 19 21 22 24 26 27 29 30 32
11 14 14 14 22 24 17 23 8 11 9 10 10 11 10 12 12 13 12 11 11 11 9 6 5 5 2 1 3 5 6 9 12 13 15 16 17 18 19 20 21 23 24 25 27 29 30 32 34
9 12 10 15 19 14 21 8 10 12 11 12 8 8 9 10 10 10 9 9 7 6 5 3 2 1 1 3 5 7 8 11 13 15 16 17 18 19 20 22 23 25 26 28 30 32 33 34 35
9 16 9 12 13 6 5 6 12 11 10 9 10 7 7 8 7 6 6 5 4 4 3 2 1 1 3 5 7 9 10 12 14 15 17 18 19 21 22 24 26 28 29 30 31 32 33 34 35
6 9 10 13 12 9 9 9 13 11 11 9 6 7 7 7 6 5 5 5 5 4 4 4 3 4 5 7 8 10 12 14 16 17 18 20 21 23 25 27 28 29 30 31 32 33 34 35 35
8 12 11 10 14 14 11 9 13 12 10 8 7 7 7 7 6 6 5 5 5 6 5 5 5 6 7 8 10 12 14 16 17 19 20 22 24 25 27 28 29 30 31 31 32 33 33 34 35
Wind_Direction
307 325 316 298 296 300 288 294 303 312 312 315 315 319 316 323 313 324 50 39 73 82 76 79 78 64 56 48 42 41 40 33 26 13 8 9 8 5 1 1 3 4 6 7 8 6 7 22 34
306 306 304 292 291 291 296 301 302 305 317 327 324 319 317 332 339 14 48 59 83 79 75 73 72 64 53 46 42 41 43 40 36 24 13 8 7 6 5 5 6 6 5 6 5 3 4 23 33
302 303 292 293 283 283 289 307 299 310 320 330 325 310 320 329 354 52 45 83 80 71 78 65 67 60 50 48 47 45 45 44 42 38 27 20 18 16 15 12 13 13 10 6 6 7 11 25 25
301 297 289 277 279 286 284 291 304 303 314 317 319 326 334 325 22 21 78 86 78 68 57 66 65 58 53 50 48 46 45 44 43 39 37 33 29 26 23 17 13 15 12 11 7 7 10 18 20
287 287 276 275 278 279 285 289 306 296 301 309 318 322 328 4 14 64 81 82 73 71 60 70 66 58 55 51 48 47 46 43 41 47 45 44 33 27 22 17 11 13 11 7 6 6 8 9 12
278 283 272 272 277 280 282 292 295 293 293 307 309 323 335 7 49 71 81 78 75 69 70 73 71 64 57 53 51 48 46 39 32 34 39 41 29 18 13 9 8 7 4 2 2 4 5 6 6
271 274 271 272 275 280 282 289 288 288 288 291 307 305 334 20 76 84 85 78 74 69 72 79 82 72 63 60 55 50 41 30 32 39 35 25 20 15 10 6 4 2 2 3 3 5 7 7 6
275 272 270 271 272 275 281 287 288 285 286 296 300 295 303 75 102 92 84 77 78 77 77 84 86 88 80 71 64 52 43 39 39 35 30 27 23 18 15 13 7 6 5 4 4 5 7 8 6
278 269 267 270 272 274 276 283 284 284 285 286 289 298 332 123 117 102 88 85 84 84 92 94 94 93 83 77 63 53 44 40 34 33 36 44 23 18 8 10 10 10 9 8 8 9 10 17 12
266 266 266 272 274 271 272 277 278 280 274 277 282 302 70 132 134 120 106 95 93 92 96 95 98 92 83 86 70 55 55 47 31 32 38 20 17 14 17 16 16 18 21 20 16 12 8 6 3
270 264 272 272 272 271 270 273 275 274 273 273 266 279 213 174 160 140 121 111 102 101 93 96 91 90 89 76 72 56 46 16 16 29 21 20 18 27 19 22 19 17 19 14 14 10 8 9 7
272 271 274 269 272 273 267 271 270 269 272 276 262 265 229 203 185 172 149 125 113 113 104 99 94 93 68 67 41 46 35 21 13 16 20 16 10 17 24 22 22 20 17 14 12 11 9 7 3
277 276 274 273 272 270 272 267 266 267 271 277 273 273 239 225 217 214 176 149 132 127 119 109 98 92 91 46 46 46 22 18 8 1 6 8 8 14 22 28 23 19 17 13 11 8 5 0 359
288 285 279 274 271 272 268 268 267 264 270 273 268 265 256 244 234 233 210 195 192 153 138 130 112 85 54 29 34 14 17 14 3 355 356 8 5 13 23 25 24 21 16 10 6 4 359 356 353
287 281 278 273 274 268 272 264 259 264 271 264 266 264 257 251 243 240 235 230 229 183 166 150 139 73 70 14 347 344 4 3 349 350 352 358 0 15 24 23 21 18 14 9 2 358 355 353 350
286 282 276 277 271 269 263 256 263 260 260 264 261 265 259 249 243 245 251 248 253 232 197 194 37 323 344 8 351 348 347 358 338 343 354 358 2 17 19 17 14 13 8 3 357 353 350 346 342
286 278 278 277 274 268 261 260 262 262 258 260 261 260 256 254 243 238 243 268 226 235 212 265 304 288 313 347 4 353 3 346 358 345 348 0 7 23 21 14 10 7 358 353 349 346 341 339 336
287 281 278 276 273 268 261 261 263 259 259 256 258 255 257 253 246 239 248 198 210 226 257 296 290 248 322 339 1 2 14 12 359 9 16 4 358 9 11 3 359 357 351 347 344 339 338 335 332
291 282 277 275 275 266 262 262 260 255 256 257 257 256 255 258 251 238 225 205 194 210 291 292 230 235 295 320 342 357 3 28 358 351 347 354 355 5 359 354 352 347 342 339 337 334 331 329 331
294 285 279 277 271 266 261 259 258 253 255 257 254 254 251 252 245 232 222 220 229 238 277 227 217 257 282 297 314 351 357 352 349 349 351 349 349 351 349 346 341 339 335 332 330 329 327 326 326
306 288 280 276 272 262 262 256 254 251 251 252 251 252 252 249 245 240 233 230 249 269 249 237 227 242 251 243 309 339 352 344 341 344 345 346 347 345 341 337 334 332 330 326 326 326 323 321 320
309 295 285 276 267 257 254 253 250 248 242 248 252 253 253 253 260 255 249 251 251 262 262 245 234 237 251 201 270 299 315 327 332 342 348 348 343 338 333 330 329 326 325 324 322 322 320 319 317
275 290 294 277 261 254 255 252 253 241 246 247 249 251 253 255 255 261 265 260 262 260 254 256 256 261 257 216 273 281 316 334 348 354 349 346 340 331 329 327 325 322 321 320 320 318 317 317 315
236 204 185 197 234 240 247 250 244 234 242 245 245 249 249 253 255 262 267 271 267 256 257 263 257 262 263 237 277 295 325 339 341 344 342 338 335 333 328 326 324 322 322 320 320 319 317 316 315
172 169 156 152 201 233 185 225 267 256 253 256 246 243 248 255 260 263 263 267 264 268 282 276 267 266 263 240 292 326 330 334 338 339 335 334 331 329 328 328 327 325 325 324 322 320 318 316 314
209 194 192 165 175 231 244 234 269 276 293 266 264 258 257 265 270 271 271 272 273 279 279 274 262 274 229 194 324 336 336 332 333 333 332 330 328 329 331 329 328 326 325 324 322 320 318 316 314
212 225 158 249 174 190 233 291 306 311 298 262 269 268 272 277 281 280 280 282 283 283 286 282 267 235 310 327 334 333 334 332 332 333 334 333 333 331 330 329 327 326 324 323 321 319 317 315 314
160 120 174 208 184 275 195 26 299 311 286 276 273 278 285 300 304 303 304 306 315 325 342 5 16 18 358 345 339 337 337 337 337 337 334 332 332 331 329 327 326 324 323 322 320 319 318 316 315
151 183 180 217 278 304 315 331 320 313 284 299 307 297 302 309 313 323 334 342 352 13 34 38 35 14 355 345 344 340 339 339 337 335 334 333 331 329 327 326 324 323 322 322 320 319 318 316 315
178 219 247 269 272 270 351 325 316 321 323 334 331 318 319 324 339 347 0 19 32 37 37 32 23 3 354 350 344 340 338 336 335 334 333 331 328 328 327 326 325 324 323 322 321 320 319 318 316